VK4CWL-13 Weather Reports


time (UTC)temp
C
wind
direction
speed
KPH
gust
KPH
rain 1hr
cm
rain 24hr
cm
rain mn
cm
humidity
%
barometer
mb
20260510011522 20 135 16.1 17.7 0.00 0.00 0.00 60 1024.3
20260510011020 20 90 16.1 16.1 0.00 0.00 0.00 60 1024.5
20260510010517 20 135 14.5 14.5 0.00 0.00 0.00 61 1024.6
20260510005512 19 135 11.3 17.7 0.00 0.00 0.00 62 1024.8
20260510005012 19 135 11.3 16.1 0.00 0.00 0.00 62 1025.0
20260510004508 19 135 11.3 16.1 0.00 0.00 0.00 62 1025.1
20260510004006 19 135 8.0 16.1 0.00 0.00 0.00 63 1025.2
20260510003504 19 135 11.3 19.3 0.00 0.00 0.00 63 1025.1
20260510003003 18 157 16.1 17.7 0.00 0.00 0.00 63 1025.1
20260510002501 18 157 9.7 16.1 0.00 0.00 0.00 63 1025.0
20260510001957 18 135 16.1 16.1 0.00 0.00 0.00 63 1025.0
20260510001454 18 157 16.1 17.7 0.00 0.00 0.00 63 1025.1
20260510000952 18 135 12.9 14.5 0.00 0.00 0.00 64 1025.4
20260510000450 18 135 16.1 16.1 0.00 0.00 0.00 64 1025.3
20260509235947 18 135 9.7 16.1 0.00 0.00 0.00 64 1025.4
20260509234944 18 157 14.5 16.1 0.00 0.00 0.00 64 1025.2
20260509233938 18 135 17.7 19.3 0.00 0.00 0.00 64 1025.1
20260509233433 18 135 12.9 17.7 0.00 0.00 0.00 64 1025.2
20260509232931 17 135 16.1 19.3 0.00 0.00 0.00 64 1025.0
20260509232429 17 135 16.1 17.7 0.00 0.00 0.00 64 1024.9
20260509231926 17 135 16.1 17.7 0.00 0.00 0.00 64 1024.9
20260509231424 17 135 12.9 17.7 0.00 0.00 0.00 64 1024.9
20260509230921 17 135 12.9 19.3 0.00 0.00 0.00 64 1024.9
20260509230419 17 135 16.1 16.1 0.00 0.00 0.00 65 1024.9
20260509225917 17 135 17.7 17.7 0.00 0.00 0.00 64 1024.8
20260509225415 17 135 17.7 17.7 0.00 0.00 0.00 64 1024.7
20260509224913 17 135 14.5 19.3 0.00 0.00 0.00 64 1024.6
20260509224411 16 135 12.9 20.9 0.00 0.00 0.00 64 1024.5
20260509223908 16 135 12.9 16.1 0.00 0.00 0.00 64 1024.3
20260509223406 16 168 12.9 17.7 0.00 0.00 0.00 64 1024.5
20260509222903 16 135 12.9 17.7 0.00 0.00 0.00 64 1024.3
20260509222401 16 146 16.1 19.3 0.00 0.00 0.00 65 1024.3
20260509221859 15 135 9.7 17.7 0.00 0.00 0.00 64 1024.1
20260509220851 15 135 16.1 19.3 0.00 0.00 0.00 65 1023.9
20260509220349 15 135 11.3 17.7 0.00 0.00 0.00 65 1024.0
20260509215847 15 157 11.3 17.7 0.00 0.00 0.00 65 1024.1
20260509215345 15 135 14.5 19.3 0.00 0.00 0.00 65 1023.9
20260509214842 15 135 11.3 16.1 0.00 0.00 0.00 66 1024.1
20260509214340 15 146 12.9 12.9 0.00 0.00 0.00 66 1024.2
20260509213837 15 157 9.7 14.5 0.00 0.00 0.00 66 1024.2
20260509213335 14 157 11.3 12.9 0.00 0.00 0.00 67 1024.1
20260509212833 14 146 9.7 12.9 0.00 0.00 0.00 67 1024.1
20260509212331 14 180 9.7 14.5 0.00 0.00 0.00 68 1023.9
20260509211828 14 135 11.3 14.5 0.00 0.00 0.00 69 1023.8
20260509211326 13 146 9.7 12.9 0.00 0.00 0.00 69 1023.7
20260509210824 13 135 11.3 11.3 0.00 0.00 0.00 69 1023.6
20260509210322 13 135 8.0 11.3 0.00 0.00 0.00 70 1023.4
20260509205819 13 168 6.4 11.3 0.00 0.00 0.00 69 1023.6
20260509205317 13 180 6.4 9.7 0.00 0.00 0.00 69 1023.6
20260509204814 13 157 6.4 9.7 0.00 0.00 0.00 69 1023.5
20260509204312 13 157 6.4 9.7 0.00 0.00 0.00 68 1023.3
20260509203811 13 157 6.4 9.7 0.00 0.00 0.00 68 1023.1
20260509203307 13 135 8.0 8.0 0.00 0.00 0.00 68 1022.9
20260509202805 13 168 4.8 9.7 0.00 0.00 0.00 68 1023.0
20260509202306 13 180 8.0 8.0 0.00 0.00 0.00 67 1022.8
20260509201803 13 135 6.4 8.0 0.00 0.00 0.00 67 1022.8
20260509201259 13 157 6.4 6.4 0.00 0.00 0.00 67 1023.0
20260509200757 13 135 4.8 6.4 0.00 0.00 0.00 67 1022.8
20260509200254 13 180 4.8 4.8 0.00 0.00 0.00 67 1023.1
20260509195751 13 180 1.6 3.2 0.00 0.00 0.00 67 1023.1
20260509195251 13 191 3.2 4.8 0.00 0.00 0.00 67 1023.1
20260509194747 13 180 3.2 4.8 0.00 0.00 0.00 67 1022.7
20260509194245 13 135 4.8 6.4 0.00 0.00 0.00 67 1022.7
20260509193742 13 135 3.2 6.4 0.00 0.00 0.00 67 1022.9
20260509193240 13 168 6.4 8.0 0.00 0.00 0.00 67 1022.5
20260509192738 13 180 6.4 6.4 0.00 0.00 0.00 67 1022.8
20260509192237 13 191 6.4 8.0 0.00 0.00 0.00 67 1022.6
20260509191734 13 180 4.8 8.0 0.00 0.00 0.00 67 1022.5
20260509191231 12 180 6.4 8.0 0.00 0.00 0.00 68 1022.4
20260509190728 12 157 4.8 8.0 0.00 0.00 0.00 68 1022.3
20260509190226 12 180 4.8 6.4 0.00 0.00 0.00 68 1022.3
20260509185724 12 157 4.8 6.4 0.00 0.00 0.00 68 1022.2
20260509185222 12 180 3.2 4.8 0.00 0.00 0.00 68 1022.4
20260509184720 12 180 3.2 6.4 0.00 0.00 0.00 68 1022.4
20260509183715 12 135 8.0 11.3 0.00 0.00 0.00 69 1022.1
20260509183213 12 180 9.7 9.7 0.00 0.00 0.00 69 1022.1
20260509182711 12 157 6.4 9.7 0.00 0.00 0.00 69 1022.1
20260509182208 12 168 6.4 9.7 0.00 0.00 0.00 69 1021.8
20260509181705 12 180 6.4 9.7 0.00 0.00 0.00 68 1021.6
20260509181203 12 180 6.4 8.0 0.00 0.00 0.00 68 1021.7
20260509180701 12 146 9.7 9.7 0.00 0.00 0.00 68 1021.7
20260509180159 12 191 4.8 4.8 0.00 0.00 0.00 67 1021.9
20260509175657 12 135 3.2 3.2 0.00 0.00 0.00 67 1021.9
20260509175154 12 180 1.6 3.2 0.00 0.00 0.00 67 1021.9
20260509174652 12 180 1.6 3.2 0.00 0.00 0.00 67 1021.8
20260509174150 12 180 1.6 4.8 0.00 0.00 0.00 67 1021.8
20260509173648 12 180 1.6 3.2 0.00 0.00 0.00 67 1021.7
20260509173145 12 225 0.0 1.6 0.00 0.00 0.00 66 1021.8
20260509172642 12 225 0.0 3.2 0.00 0.00 0.00 67 1021.7
20260509172140 12 180 3.2 3.2 0.00 0.00 0.00 66 1021.8
20260509171638 12 168 1.6 3.2 0.00 0.00 0.00 65 1022.0
20260509171136 12 180 1.6 3.2 0.00 0.00 0.00 65 1022.0
20260509170634 12 157 1.6 4.8 0.00 0.00 0.00 65 1022.0
20260509170132 12 180 3.2 6.4 0.00 0.00 0.00 65 1022.0
20260509165629 12 180 4.8 6.4 0.00 0.00 0.00 65 1021.9
20260509165127 12 180 4.8 4.8 0.00 0.00 0.00 64 1022.1
20260509164625 12 180 3.2 3.2 0.00 0.00 0.00 64 1022.2
20260509164122 12 180 3.2 4.8 0.00 0.00 0.00 64 1022.1
20260509163620 12 168 1.6 3.2 0.00 0.00 0.00 63 1022.1
20260509163117 12 202 3.2 6.4 0.00 0.00 0.00 64 1022.0
20260509162615 12 180 4.8 4.8 0.00 0.00 0.00 63 1021.9
20260509162113 12 180 3.2 4.8 0.00 0.00 0.00 63 1021.9
20260509161611 12 180 4.8 6.4 0.00 0.00 0.00 63 1021.8
20260509161109 12 180 4.8 6.4 0.00 0.00 0.00 63 1021.7
20260509160606 12 180 4.8 6.4 0.00 0.00 0.00 63 1021.9
20260509160104 12 180 6.4 6.4 0.00 0.00 0.00 63 1021.9
20260509155602 12 180 3.2 3.2 0.00 0.00 0.00 63 1022.0
20260509155059 12 180 3.2 3.2 0.00 0.00 0.00 63 1021.9
20260509154557 12 157 1.6 4.8 0.00 0.00 0.00 63 1022.0
20260509154054 12 180 3.2 4.8 0.00 0.00 0.00 63 1022.1
20260509153552 12 168 4.8 4.8 0.00 0.00 0.00 62 1022.1
20260509153050 12 157 3.2 4.8 0.00 0.00 0.00 62 1021.9
20260509152548 12 157 3.2 4.8 0.00 0.00 0.00 61 1021.9
20260509152046 12 180 3.2 4.8 0.00 0.00 0.00 61 1022.3
20260509151544 12 135 3.2 3.2 0.00 0.00 0.00 61 1022.3
20260509151041 12 135 1.6 4.8 0.00 0.00 0.00 60 1022.3
20260509150036 13 135 4.8 8.0 0.00 0.00 0.00 58 1022.1
20260509145534 13 180 4.8 8.0 0.00 0.00 0.00 58 1022.0
20260509145032 13 180 4.8 6.4 0.00 0.00 0.00 58 1022.2
20260509144529 13 180 3.2 3.2 0.00 0.00 0.00 57 1022.4
20260509144027 13 135 1.6 1.6 0.00 0.00 0.00 56 1022.3
20260509143525 13 157 1.6 4.8 0.00 0.00 0.00 56 1022.4
20260509143023 13 168 4.8 6.4 0.00 0.00 0.00 56 1022.4
20260509142521 13 135 4.8 4.8 0.00 0.00 0.00 56 1022.3
20260509142018 13 101 3.2 3.2 0.00 0.00 0.00 55 1022.1
20260509141516 13 112 3.2 3.2 0.00 0.00 0.00 55 1022.1
20260509141014 13 135 1.6 3.2 0.00 0.00 0.00 54 1022.2
20260509140511 13 135 3.2 4.8 0.00 0.00 0.00 54 1022.1
20260509140009 14 157 1.6 3.2 0.00 0.00 0.00 53 1022.0
20260509135506 14 157 3.2 6.4 0.00 0.00 0.00 53 1022.0
20260509135004 14 180 4.8 8.0 0.00 0.00 0.00 53 1022.1
20260509134502 14 180 4.8 6.4 0.00 0.00 0.00 54 1022.3
20260509134000 14 135 6.4 6.4 0.00 0.00 0.00 54 1022.1
20260509133458 14 101 6.4 6.4 0.00 0.00 0.00 54 1022.2
20260509132955 14 112 6.4 9.7 0.00 0.00 0.00 54 1022.2
20260509132453 14 112 4.8 9.7 0.00 0.00 0.00 54 1022.2
20260509131951 13 157 6.4 8.0 0.00 0.00 0.00 53 1022.0
20260509131448 13 112 6.4 6.4 0.00 0.00 0.00 53 1022.0
20260509130444 13 146 6.4 6.4 0.00 0.00 0.00 52 1022.0
20260509125941 14 135 6.4 8.0 0.00 0.00 0.00 52 1022.0
20260509125441 14 135 6.4 8.0 0.00 0.00 0.00 52 1021.9
20260509124937 14 157 6.4 6.4 0.00 0.00 0.00 51 1021.6
20260509124435 15 146 6.4 6.4 0.00 0.00 0.00 51 1021.5
20260509123933 15 180 8.0 8.0 0.00 0.00 0.00 51 1021.5
20260509123431 15 168 6.4 8.0 0.00 0.00 0.00 50 1021.5
20260509122931 15 157 6.4 6.4 0.00 0.00 0.00 50 1021.4
20260509122425 15 191 4.8 6.4 0.00 0.00 0.00 50 1021.4
20260509121923 15 180 4.8 6.4 0.00 0.00 0.00 49 1021.5
20260509121421 15 135 6.4 6.4 0.00 0.00 0.00 49 1021.4
20260509120918 15 168 6.4 6.4 0.00 0.00 0.00 48 1021.5
20260509120416 15 157 4.8 6.4 0.00 0.00 0.00 48 1021.3
20260509115914 16 180 4.8 4.8 0.00 0.00 0.00 48 1021.4
20260509115412 16 146 4.8 4.8 0.00 0.00 0.00 48 1021.4
20260509114910 16 135 4.8 6.4 0.00 0.00 0.00 48 1021.4
20260509114407 16 135 4.8 6.4 0.00 0.00 0.00 48 1021.3
20260509113905 16 135 4.8 6.4 0.00 0.00 0.00 48 1021.4
20260509113402 16 135 4.8 6.4 0.00 0.00 0.00 48 1021.4
20260509112900 16 135 4.8 4.8 0.00 0.00 0.00 48 1021.3
20260509112358 16 146 4.8 6.4 0.00 0.00 0.00 48 1021.4
20260509111855 16 135 4.8 6.4 0.00 0.00 0.00 47 1021.3
20260509111353 16 135 4.8 6.4 0.00 0.00 0.00 47 1021.3
20260509110851 16 135 4.8 6.4 0.00 0.00 0.00 47 1021.3
20260509110349 16 123 4.8 6.4 0.00 0.00 0.00 47 1021.4
20260509105847 16 135 4.8 6.4 0.00 0.00 0.00 47 1021.4
20260509105345 16 135 4.8 4.8 0.00 0.00 0.00 47 1021.4
20260509104842 16 135 4.8 4.8 0.00 0.00 0.00 47 1021.5
20260509104339 16 157 3.2 4.8 0.00 0.00 0.00 47 1021.4
20260509103837 16 135 4.8 4.8 0.00 0.00 0.00 47 1021.4
20260509103335 16 157 4.8 4.8 0.00 0.00 0.00 46 1021.5
20260509102833 16 135 4.8 4.8 0.00 0.00 0.00 46 1021.4
20260509102330 16 135 3.2 4.8 0.00 0.00 0.00 46 1021.4
20260509101828 16 135 4.8 4.8 0.00 0.00 0.00 46 1021.4
20260509101326 16 157 3.2 4.8 0.00 0.00 0.00 46 1021.3
20260509100824 16 135 4.8 4.8 0.00 0.00 0.00 46 1021.2
20260509100321 16 112 4.8 6.4 0.00 0.00 0.00 46 1021.3
20260509095819 16 135 4.8 6.4 0.00 0.00 0.00 45 1021.3
20260509095316 16 135 6.4 6.4 0.00 0.00 0.00 45 1021.3
20260509094814 16 135 4.8 6.4 0.00 0.00 0.00 45 1021.2
20260509094312 16 168 4.8 6.4 0.00 0.00 0.00 44 1021.1
20260509093812 16 135 4.8 4.8 0.00 0.00 0.00 44 1021.1
20260509093307 16 135 4.8 4.8 0.00 0.00 0.00 44 1021.0
20260509092805 17 135 1.6 3.2 0.00 0.00 0.00 43 1020.8
20260509092305 17 135 3.2 3.2 0.00 0.00 0.00 42 1020.7
20260509091801 17 135 3.2 4.8 0.00 0.00 0.00 42 1020.6
20260509091259 17 157 4.8 4.8 0.00 0.00 0.00 42 1020.5
20260509090756 18 180 4.8 4.8 0.00 0.00 0.00 41 1020.5
20260509090253 18 157 4.8 4.8 0.00 0.00 0.00 41 1020.4
20260509085751 18 168 4.8 4.8 0.00 0.00 0.00 41 1020.3
20260509085249 18 168 3.2 4.8 0.00 0.00 0.00 40 1020.2
20260509084747 18 180 3.2 4.8 0.00 0.00 0.00 40 1020.1
20260509084245 18 168 3.2 4.8 0.00 0.00 0.00 40 1020.0
20260509083742 18 180 4.8 4.8 0.00 0.00 0.00 39 1019.9
20260509083240 19 191 4.8 4.8 0.00 0.00 0.00 39 1019.9
20260509082738 19 180 4.8 4.8 0.00 0.00 0.00 39 1019.8
20260509082236 19 180 3.2 4.8 0.00 0.00 0.00 38 1019.6
20260509081737 20 180 3.2 4.8 0.00 0.00 0.00 38 1019.6
20260509081232 20 180 3.2 4.8 0.00 0.00 0.00 37 1019.5
20260509080728 20 180 3.2 4.8 0.00 0.00 0.00 37 1019.5
20260509080226 20 180 3.2 6.4 0.00 0.00 0.00 36 1019.4
20260509075724 21 180 4.8 6.4 0.00 0.00 0.00 36 1019.3
20260509075222 21 180 4.8 4.8 0.00 0.00 0.00 35 1019.2
20260509074720 21 180 4.8 4.8 0.00 0.00 0.00 34 1019.2
20260509074220 21 180 4.8 4.8 0.00 0.00 0.00 34 1019.1
20260509073718 22 157 3.2 4.8 0.00 0.00 0.00 33 1019.1
20260509073214 22 168 4.8 4.8 0.00 0.00 0.00 33 1019.0
20260509072712 22 180 4.8 6.4 0.00 0.00 0.00 32 1018.9
20260509072209 22 135 4.8 9.7 0.00 0.00 0.00 32 1018.8
20260509071707 23 112 9.7 9.7 0.00 0.00 0.00 31 1018.7
20260509071204 23 112 9.7 12.9 0.00 0.00 0.00 31 1018.6
20260509070704 23 135 8.0 14.5 0.00 0.00 0.00 30 1018.5
20260509070200 23 135 9.7 9.7 0.00 0.00 0.00 30 1018.4
20260509065659 23 90 9.7 12.9 0.00 0.00 0.00 30 1018.4
20260509065156 23 90 11.3 14.5 0.00 0.00 0.00 29 1018.4
20260509064654 24 90 12.9 16.1 0.00 0.00 0.00 29 1018.5
20260509064152 24 135 11.3 16.1 0.00 0.00 0.00 29 1018.4
20260509063651 24 135 9.7 14.5 0.00 0.00 0.00 29 1018.3
20260509063147 24 135 9.7 14.5 0.00 0.00 0.00 28 1018.3
20260509062644 24 90 12.9 14.5 0.00 0.00 0.00 28 1018.2
20260509062142 24 135 9.7 16.1 0.00 0.00 0.00 28 1018.2
20260509061639 25 135 11.3 16.1 0.00 0.00 0.00 28 1018.2
20260509061138 25 135 11.3 19.3 0.00 0.00 0.00 28 1018.1
20260509060635 25 135 16.1 19.3 0.00 0.00 0.00 28 1018.0
20260509060134 25 135 8.0 16.1 0.00 0.00 0.00 29 1018.1
20260509055632 25 135 19.3 20.9 0.00 0.00 0.00 29 1018.0
20260509055130 25 135 12.9 17.7 0.00 0.00 0.00 28 1017.9
20260509054626 25 112 19.3 20.9 0.00 0.00 0.00 28 1017.9
20260509054123 25 180 9.7 16.1 0.00 0.00 0.00 29 1017.9
20260509053622 25 112 8.0 17.7 0.00 0.00 0.00 29 1017.8
20260509053119 25 146 16.1 16.1 0.00 0.00 0.00 29 1017.8
20260509052620 25 90 11.3 16.1 0.00 0.00 0.00 28 1017.8
20260509052114 25 90 11.3 17.7 0.00 0.00 0.00 29 1017.9
20260509051614 25 135 11.3 19.3 0.00 0.00 0.00 29 1017.8
20260509051111 25 112 8.0 12.9 0.00 0.00 0.00 29 1017.8
20260509050609 25 135 8.0 20.9 0.00 0.00 0.00 29 1017.8
20260509050106 25 112 17.7 17.7 0.00 0.00 0.00 30 1017.7
20260509045604 25 168 9.7 12.9 0.00 0.00 0.00 30 1017.8
20260509045100 25 112 14.5 17.7 0.00 0.00 0.00 29 1017.8
20260509044600 25 135 19.3 19.3 0.00 0.00 0.00 30 1017.7
20260509044437 25 67 4.8 14.5 0.00 0.00 0.00 30 1017.7
20260509043935 25 90 12.9 12.9 0.00 0.00 0.00 30 1017.7
20260509043433 24 146 16.1 17.7 0.00 0.00 0.00 30 1017.8
20260509042426 24 67 11.3 14.5 0.00 0.00 0.00 30 1017.9
20260509041925 24 90 11.3 17.7 0.00 0.00 0.00 30 1018.0
20260509041421 24 135 16.1 17.7 0.00 0.00 0.00 30 1018.0
20260509040922 24 123 11.3 17.7 0.00 0.00 0.00 30 1018.1
20260509040419 24 90 6.4 16.1 0.00 0.00 0.00 30 1018.2
20260509035917 24 123 9.7 24.1 0.00 0.00 0.00 30 1018.3
20260509035723 24 135 24.1 24.1 0.00 0.00 0.00 31 1018.4
20260509035332 24 180 8.0 14.5 0.00 0.00 0.00 32 1018.5
20260509034829 23 90 11.3 19.3 0.00 0.00 0.00 31 1018.4
20260509034326 23 135 6.4 19.3 0.00 0.00 0.00 32 1018.5
20260509034015 23 135 19.3 19.3 0.00 0.00 0.00 33 1018.5
20260509033832 23 90 4.8 17.7 0.00 0.00 0.00 33 1018.5
20260509033330 23 180 12.9 20.9 0.00 0.00 0.00 33 1018.6
20260509032830 23 157 9.7 17.7 0.00 0.00 0.00 34 1018.7
20260509032326 23 157 14.5 16.1 0.00 0.00 0.00 34 1018.8
20260509031822 23 135 16.1 20.9 0.00 0.00 0.00 33 1018.9
20260509030817 22 135 17.7 17.7 0.00 0.00 0.00 34 1019.1
20260509030312 22 135 14.5 14.5 0.00 0.00 0.00 33 1019.1
20260509025810 22 135 19.3 19.3 0.00 0.00 0.00 34 1019.2
20260509025459 22 112 4.8 19.3 0.00 0.00 0.00 34 1019.3
20260509025205 22 135 17.7 17.7 0.00 0.00 0.00 34 1019.4
20260509025023 22 135 4.8 16.1 0.00 0.00 0.00 34 1019.4
20260509024521 22 112 6.4 19.3 0.00 0.00 0.00 33 1019.5
20260509024019 22 180 8.0 24.1 0.00 0.00 0.00 34 1019.6
20260509023609 22 135 22.5 22.5 0.00 0.00 0.00 34 1019.6
20260509023414 22 135 9.7 19.3 0.00 0.00 0.00 35 1019.7
20260509022411 22 112 14.5 20.9 0.00 0.00 0.00 35 1020.0
20260509021907 22 135 19.3 20.9 0.00 0.00 0.00 35 1020.0
20260509021408 22 146 16.1 20.9 0.00 0.00 0.00 35 1020.1
20260509020904 21 135 19.3 19.3 0.00 0.00 0.00 36 1020.2
20260509020018 21 135 16.1 16.1 0.00 0.00 0.00 36 1020.4
20260509015515 21 90 14.5 19.3 0.00 0.00 0.00 36 1020.4
20260509015013 21 135 16.1 17.7 0.00 0.00 0.00 37 1020.4
20260509014511 21 135 19.3 19.3 0.00 0.00 0.00 37 1020.6
20260509014010 21 191 11.3 20.9 0.00 0.00 0.00 38 1020.7
20260509013506 21 135 17.7 17.7 0.00 0.00 0.00 37 1020.8
20260509013004 20 135 14.5 20.9 0.00 0.00 0.00 38 1020.9
20260509012505 20 112 14.5 17.7 0.00 0.00 0.00 38 1021.0
20260509012003 20 135 9.7 25.7 0.00 0.00 0.00 38 1021.0